This demonstration page uses our WeatherBlox Daily Observations layout. Learn more.

40.92945, -100.16068

Hourly Observations for February 5, 2019

Temp ( °F °C ) Dew Point ( °F °C ) Humidity (%) Winds ( mph kmh ) Pressure ( in mb ) Visibility ( mi km ) Precip ( " mm )
12:15 am 00:15 Clear 13 -10.7 3 -15.9 66 66 ENE 8 13 30.22 1023 10 16.0934 N/A
12:35 am 00:35 Clear 13 -10.7 4 -15.5 68 68 NE 9 15 30.22 1023 10 16.0934 N/A
12:55 am 00:55 Clear 13 -10.8 4 -15.6 68 68 NE 12 19 30.21 1023 10 16.0934 N/A
1:15 am 01:15 Clear 12 -11.1 3 -16.2 66 66 NE 9 15 30.21 1023 10 16.0934 N/A
1:35 am 01:35 Clear 12 -11.2 3 -16 68 68 NE 8 13 30.22 1023 10 16.0934 N/A
1:55 am 01:55 Clear 11 -11.5 3 -16.1 69 69 NE 9 15 30.22 1023 10 16.0934 N/A
2:15 am 02:15 Clear 11 -11.6 2 -16.4 68 68 ENE 12 19 30.21 1023 10 16.0934 N/A
2:35 am 02:35 Clear 10 -12 2 -16.6 69 69 NE 9 15 30.21 1023 10 16.0934 N/A
2:55 am 02:55 Clear 10 -12 2 -16.8 68 68 ENE 9 15 30.22 1023 10 16.0934 N/A
3:15 am 03:15 Clear 10 -12.2 1 -17.5 65 65 ENE 8 13 30.21 1023 10 16.0934 N/A
3:35 am 03:35 Clear 10 -12.3 1 -17.3 67 67 ENE 8 13 30.23 1024 10 16.0934 N/A
3:55 am 03:55 Clear 10 -12.5 1 -17 69 69 NE 9 15 30.22 1023 10 16.0934 N/A
4:15 am 04:15 Clear 10 -12.5 1 -17.4 67 67 ENE 10 17 30.21 1023 10 16.0934 N/A
4:35 am 04:35 Partly Cloudy 10 -12.5 1 -17.2 68 68 ENE 9 15 30.2 1023 10 16.0934 N/A
4:55 am 04:55 Mostly Cloudy 10 -12.5 1 -17.5 67 67 E 9 15 30.2 1023 10 16.0934 N/A
5:15 am 05:15 Cloudy 10 -12.3 1 -17.2 67 67 E 10 17 30.2 1023 10 16.0934 N/A
5:35 am 05:35 Cloudy 10 -12.5 1 -17.4 67 67 E 10 17 30.2 1023 10 16.0934 N/A
5:55 am 05:55 Cloudy 10 -12.5 1 -17.3 68 68 E 9 15 30.2 1023 10 16.0934 N/A
6:15 am 06:15 Cloudy 10 -12.5 1 -17.2 68 68 E 7 11 30.19 1022 10 16.0934 N/A
6:35 am 06:35 Cloudy 10 -12.5 1 -17.4 67 67 E 8 13 30.18 1022 10 16.0934 N/A
6:55 am 06:55 Cloudy 10 -12.5 1 -17.3 68 68 ENE 9 15 30.18 1022 10 16.0934 N/A
7:15 am 07:15 Cloudy 9 -12.6 1 -17.5 67 67 ENE 8 13 30.19 1022 10 16.0934 N/A
7:35 am 07:35 Cloudy 9 -12.6 1 -17.1 69 69 E 7 11 30.2 1023 10 16.0934 N/A
7:55 am 07:55 Cloudy 10 -12.5 2 -16.7 71 71 E 7 11 30.2 1023 10 16.0934 N/A
8:15 am 08:15 Cloudy 10 -12.5 2 -16.8 71 71 ENE 6 9 30.21 1023 10 16.0934 N/A
8:35 am 08:35 Cloudy 10 -12.5 2 -16.9 70 70 E 5 7 30.21 1023 10 16.0934 N/A
8:55 am 08:55 Cloudy 10 -12.4 2 -16.9 69 69 ENE 6 9 30.19 1022 10 16.0934 N/A
9:15 am 09:15 Cloudy 10 -12.3 1 -17 68 68 E 7 11 30.18 1022 10 16.0934 N/A
9:35 am 09:35 Cloudy 10 -12.2 2 -16.9 68 68 ENE 7 11 30.18 1022 10 16.0934 N/A
9:55 am 09:55 Cloudy 10 -12.1 2 -16.7 69 69 ENE 6 9 30.18 1022 10 16.0934 N/A
10:15 am 10:15 Cloudy 10 -12 2 -16.8 68 68 ENE 6 9 30.17 1022 10 16.0934 N/A
10:35 am 10:35 Cloudy 11 -11.9 2 -16.7 68 68 E 7 11 30.17 1022 10 16.0934 N/A
10:55 am 10:55 Cloudy 11 -11.6 2 -16.5 67 67 SE 3 6 30.17 1022 10 16.0934 N/A
11:15 am 11:15 Cloudy 11 -11.4 2 -16.5 66 66 Calm 30.17 1022 10 16.0934 N/A
11:35 am 11:35 Cloudy 12 -11.2 2 -16.5 65 65 ESE 5 7 30.15 1021 10 16.0934 N/A
11:55 am 11:55 Cloudy 12 -11 2 -16.6 64 64 Calm 30.14 1021 10 16.0934 N/A
12:15 pm 12:15 Cloudy 13 -10.7 3 -16.3 64 64 ENE 3 6 30.13 1020 10 16.0934 N/A
12:35 pm 12:35 Cloudy 13 -10.5 2 -16.4 62 62 E 5 7 30.12 1020 10 16.0934 N/A
12:55 pm 12:55 Cloudy 13 -10.4 3 -16.3 62 62 ESE 3 6 30.1 1019 10 16.0934 N/A
1:15 pm 13:15 Cloudy 14 -10.1 3 -16.1 62 62 Calm 30.09 1019 10 16.0934 N/A
1:35 pm 13:35 Cloudy 15 -9.6 4 -15.8 61 61 SE 3 6 30.09 1019 10 16.0934 N/A
1:55 pm 13:55 Cloudy 15 -9.6 4 -15.8 61 61 Calm 30.08 1018 10 16.0934 N/A
2:15 pm 14:15 Cloudy 15 -9.4 4 -15.6 61 61 Calm 30.06 1018 10 16.0934 N/A
2:35 pm 14:35 Cloudy 16 -9.1 4 -15.5 60 60 Calm 30.06 1018 10 16.0934 N/A
2:55 pm 14:55 Cloudy 16 -8.8 5 -15 61 61 Calm 30.06 1018 10 16.0934 N/A
3:15 pm 15:15 Cloudy 16 -9 4 -15.4 60 60 Calm 30.05 1018 10 16.0934 N/A
3:35 pm 15:35 Cloudy 17 -8.5 5 -15.1 59 59 ESE 3 6 30.04 1017 10 16.0934 N/A
3:55 pm 15:55 Cloudy 17 -8.5 5 -14.9 60 60 Calm 30.04 1017 10 16.0934 N/A
4:15 pm 16:15 Cloudy 17 -8.3 5 -14.9 59 59 Calm 30.05 1018 10 16.0934 N/A
4:35 pm 16:35 Cloudy 17 -8.4 5 -15 59 59 Calm 30.05 1018 10 16.0934 N/A
4:55 pm 16:55 Cloudy 17 -8.1 5 -14.8 59 59 ENE 3 6 30.05 1018 10 16.0934 N/A
5:15 pm 17:15 Cloudy 17 -8.1 6 -14.6 60 60 Calm 30.05 1018 10 16.0934 N/A
5:35 pm 17:35 Cloudy 17 -8.1 6 -14.7 59 59 E 3 6 30.05 1018 10 16.0934 N/A
6:15 pm 18:15 Cloudy 18 -8 6 -14.4 60 60 E 6 9 30.04 1017 10 16.0934 N/A
6:35 pm 18:35 Cloudy 18 -8 6 -14.4 60 60 E 6 9 30.04 1017 10 16.0934 N/A
6:55 pm 18:55 Cloudy 18 -8 6 -14.5 60 60 E 6 9 30.05 1018 10 16.0934 N/A
7:15 pm 19:15 Cloudy 18 -7.8 6 -14.4 59 59 E 6 9 30.06 1018 10 16.0934 N/A
7:35 pm 19:35 Cloudy 18 -7.7 6 -14.2 60 60 E 7 11 30.06 1018 10 16.0934 N/A
7:55 pm 19:55 Cloudy 18 -7.7 6 -14.3 60 60 ESE 5 7 30.07 1018 10 16.0934 N/A
8:15 pm 20:15 Cloudy 18 -7.7 7 -14.1 60 60 E 6 9 30.07 1018 10 16.0934 N/A
8:35 pm 20:35 Cloudy 18 -7.7 6 -14.3 60 60 E 7 11 30.08 1018 10 16.0934 N/A
8:55 pm 20:55 Cloudy 18 -7.7 6 -14.2 60 60 E 7 11 30.08 1018 10 16.0934 N/A
9:15 pm 21:15 Cloudy 18 -8 6 -14.5 60 60 E 8 13 30.08 1019 10 16.0934 N/A
9:35 pm 21:35 Cloudy 18 -8 6 -14.5 60 60 E 8 13 30.08 1019 10 16.0934 N/A
9:55 pm 21:55 Cloudy 18 -8 6 -14.5 60 60 E 9 15 30.08 1019 10 16.0934 N/A
10:15 pm 22:15 Cloudy 18 -8 6 -14.5 60 60 ENE 8 13 30.08 1019 10 16.0934 N/A
10:35 pm 22:35 Cloudy 17 -8.1 6 -14.7 59 59 E 7 11 30.08 1019 10 16.0934 N/A
10:55 pm 22:55 Cloudy 17 -8.1 6 -14.5 60 60 E 8 13 30.09 1019 10 16.0934 N/A
11:15 pm 23:15 Cloudy 17 -8.2 5 -14.8 59 59 ESE 6 9 30.09 1019 10 16.0934 N/A
11:35 pm 23:35 Cloudy 17 -8.2 6 -14.7 60 60 ESE 5 7 30.1 1019 10 16.0934 N/A
11:55 pm 23:55 Cloudy 17 -8.2 6 -14.5 61 61 E 7 11 30.1 1019 10 16.0934 N/A

Powered by AerisWeather